Regional Weather Roundup
Issued by NWS Northern Indiana

Home | Current Version | Previous Version | Graphics & Text | Print | Product List | Glossary On
Versions: 1 2 3 4 5 6 7 8 9 10 11 12 13 14 15 16 17 18 19 20 21 22 23 24 25 26 27 28 29 30 31 32 33 34 35 36 37 38 39 40 41 42 43 44 45 46 47 48 49 50
000
ASUS43 KIWX 270510
RWRIWX

KIWX WEATHER ROUNDUP
NATIONAL WEATHER SERVICE NORTHERN INDIANA
100 AM EDT SAT MAY 27 2017

NOTE: "FAIR" INDICATES FEW OR NO CLOUDS BELOW 12,000 FEET WITH NO
SIGNIFICANT WEATHER AND/OR OBSTRUCTIONS TO VISIBILITY.

* THESE STATIONS ARE NOT UNDER NWS QUALITY CONTROL. THEY ALSO MAY NOT
  REPORT WEATHER SUCH AS PRECIPITATION OR FOG.

INZ001>027-270600-
NORTHERN INDIANA

CITY           SKY/WX    TMP DP  RH WIND       PRES   REMARKS
GARY*          HVY RAIN  57  54  90 NE7       29.85S
VALPARAISO     MOCLDY    61  60  97 NE8       29.83F
MICHIGAN CITY* CLOUDY    59  59 100 E3        29.84F
LAPORTE*       CLOUDY    60  58  95 E9        29.84F
KNOX*          CLOUDY    61  55  82 E7        29.82S
SOUTH BEND     CLOUDY    59  58  96 E7        29.85S
GOSHEN         CLOUDY    59  55  87 NE6       29.85F
MONTICELLO*    CLOUDY    64  63  95 E3        29.80S
LOGANSPORT*    CLOUDY    63  63 100 E6        29.82S
ROCHESTER*     CLOUDY    63  63 100 E6        29.83S
WARSAW*        DRIZZLE   59  59 100 E8        29.84F
ANGOLA*        MOCLDY    57  57 100 E3        29.87R
FORT WAYNE     LGT RAIN  62  59  90 W9        29.84F
HUNTINGTON*    CLOUDY   N/A N/A N/A E7        29.83F
PERU/GRISSOM   DRIZZLE   65  65 100 E7        29.81S
MARION*        LGT RAIN  64  63  94 SE5       29.83S

$$
INZ028>050-270600-
CENTRAL INDIANA

CITY           SKY/WX    TMP DP  RH WIND       PRES   REMARKS
LAFAYETTE      CLOUDY    66  65  96 CALM      29.79R
KOKOMO*        LGT RAIN  66  64  93 E5        29.83R
MUNCIE*        CLOUDY    68  63  84 S7        29.82S
INDIANAPOLIS   PTCLDY    69  63  81 SW10      29.80S

$$
MIZ043>046-050>051-056>058-064>065-071>073-077>080-270600-
SOUTHWEST LOWER MICHIGAN

CITY           SKY/WX    TMP DP  RH WIND       PRES   REMARKS
BATTLE CREEK   CLOUDY    61  57  87 E7        29.87S
BENTON HARBOR  LGT RAIN  59  56  89 E5        29.85S FOG
COLDWATER*     CLOUDY    58  58  99 CALM      29.86F
HILLSDALE*     LGT RAIN  59  55  88 NE5       29.87F
HOLLAND        CLOUDY    56  54  93 CALM      29.87S
GRAND RAPIDS   CLOUDY    61  61 100 CALM      29.86F
KALAMAZOO      CLOUDY    61  57  87 CALM      29.86F
STURGIS*       DRIZZLE   57  55  91 SE9       29.85F
THREE RIVERS*  CLOUDY    59  56  92 CALM      29.87S

$$
OHZ001>008-015>018-024>025-270600-
NORTHWEST OHIO

CITY           SKY/WX    TMP DP  RH WIND       PRES   REMARKS
WAUSEON*       LGT RAIN  61  57  88 SE3       29.88F
DEFIANCE       RAIN      58  56  93 E6        29.87F
FINDLAY        RAIN      63  59  87 E5        29.87R FOG
TOLEDO EXPRESS RAIN      60  60 100 CALM      29.89R FOG
TOLEDO METCALF LGT RAIN  61  59  93 CALM      29.90R FOG
LIMA           TSTM      61  60  97 E17       29.83F FOG

$$
AND FOR LAKE MICHIGAN COASTAL AND OPEN LAKE BUOY OBSERVATIONS

STATION/POSITION TEMP    WIND        PRES    VSBY  WAVE
                 AIR SEA DIR/SP/G                  HT/PER
                 (F)     (DEG/KT/KT) (MB)    (MI)  (FT/S)
CALUMET HARBOR    54      20/  5/  7 1010.5R
MICHIGAN CITY     59      60/  9/ 10   N/A
BURNS HARBOR      56      70/ 10/ 12 1010.8S
SOUTH LAKE BUOY   49 46   50/  6/  6 1011.5          0
4 MI NW BRIDGMAN  59 57  120/  8/ 12 1010.7          1/ 3
MICHIGAN CITY     54 53   60/  6/  8   N/A           2/ 3

$$
&&




USA.gov is the U.S. government's official web portal to all federal, state and local government web resources and services.